Regional Weather Roundup
Issued by NWS Albany, NY

Home | Current Version | Previous Version | Graphics & Text | Print | Product List | Glossary Off
Versions: 1 2 3 4 5 6 7 8 9 10 11 12 13 14 15 16 17 18 19 20 21 22 23 24 25 26 27 28 29 30 31 32 33 34 35 36 37 38 39 40 41 42 43 44 45 46 47 48 49 50

356
ASUS41 KALY 280110
RWRALY

NEW YORK STATE HOURLY WEATHER ROUNDUP
NATIONAL WEATHER SERVICE ALBANY NY
800 PM EST MON FEB 27 2017

NOTE: "FAIR" INDICATES FEW OR NO CLOUDS BELOW 12,000 FEET WITH NO
SIGNIFICANT WEATHER AND/OR NO OBSTRUCTIONS TO VISIBILITY.

NYZ032-033-038>043-046>054-057>066-NYZ062>081-082-084-280200-
EAST


CITY           SKY/WX    TMP DP  RH WIND       PRES   REMARKS
ALBANY         MOCLDY    45  20  36 SW9       30.32R
GLENS FALLS    CLOUDY    40  26  57 SW5       30.28S
POUGHKEEPSIE   CLEAR     44  25  47 SW8       30.35F
NEWBURGH       CLEAR     45  27  49 SW8       30.37S
MONTGOMERY     CLEAR     40  25  55 S3        30.35S
WHITE PLAINS   CLOUDY    41  32  70 CALM      30.37S
ISLIP          MOCLDY    44  38  79 SW10      30.40S
NEW YORK CITY  CLOUDY    52  28  39 SW8       30.39S
CENTRAL PARK   CLOUDY    50  28  42 W5        30.41S
$$

NYZ005>009-017-018-044>046-055-056-280200-
CENTRAL


CITY           SKY/WX    TMP DP  RH WIND       PRES   REMARKS
FULTON         MOCLDY    34  29  82 CALM      30.28S
SYRACUSE       MOCLDY    40  29  64 CALM      30.29R
ROME           CLOUDY    40  29  64 CALM      30.32R
ELMIRA         MOCLDY    43  21  41 W7        30.30R
BINGHAMTON     PTCLDY    38  19  46 SW10      30.28S WCI  31
MONTICELLO     CLEAR    N/A N/A N/A SW6       30.34R
$$

NYZ026>034-041>043-087-280200-
NORTH


CITY           SKY/WX    TMP DP  RH WIND       PRES   REMARKS
WATERTOWN      CLOUDY    35  30  82 NE3       30.28R
FORT DRUM      NOT AVBL
OGDENSBURG     FAIR      32  27  80 SW3       30.26S
MASSENA        CLEAR     35  23  61 SW7       30.27R WCI  29
SARANAC LAKE   MOCLDY    33  27  78 SW3       30.22R
PLATTSBURGH    CLEAR     39  26  59 S5        30.26R
$$

NYZ001>004-010>016-019>021-085-280200-
WEST


CITY           SKY/WX    TMP DP  RH WIND       PRES   REMARKS
NIAGARA FALLS  CLEAR     36  26  67 S6        30.26S WCI  31
BUFFALO        PTCLDY    37  25  61 S5        30.27S WCI  33
DUNKIRK        CLOUDY    37  28  70 CALM      30.27S
JAMESTOWN      CLOUDY    39  21  48 S3        30.24S
WELLSVILLE     CLOUDY    41  21  44 S6        30.27R
ROCHESTER      MOCLDY    43  24  47 W7        30.27S
PENN YAN       CLOUDY    44  23  43 S6        30.28R
$$

             KEY
       WCI = WIND CHILL INDEX
       VSB = VISIBILITY
       HX  = HEAT INDEX
$$




USA.gov is the U.S. government's official web portal to all federal, state and local government web resources and services.